Location: Choisy
(48.7685°N, 2.4187°E)
Time: 17:29:43
(UTC+00:00)

IRS-1C Rocket - Visible Passes

Search period start: 16 May 2022 00:00
Search period end: 26 May 2022 00:00
Orbit: 799 x 806 km, 98.9° (Epoch: 15 May)

Date Brightness Start Highest point End Pass type
(mag) Time Alt. Az. Time Alt. Az. Time Alt. Az.
16 May 6.8 21:05:18 10° WSW 21:07:27 12° W 21:09:35 10° WNW visible
17 May 6.4 20:37:28 10° SW 20:41:20 21° W 20:45:14 10° NW visible
18 May 5.8 20:10:38 10° SSW 20:15:20 33° W 20:20:05 10° NNW visible
20 May 6.7 21:01:38 10° WSW 21:04:08 13° W 21:06:39 10° WNW visible
21 May 6.4 20:34:01 10° SW 20:38:03 22° W 20:42:06 10° NW visible
22 May 5.6 20:07:17 10° SSW 20:12:04 35° W 20:16:53 10° NNW visible
24 May 6.7 20:58:02 10° WSW 21:00:50 14° W 21:03:39 10° NW visible
25 May 6.3 20:30:36 10° SW 20:34:46 24° W 20:38:57 10° NW visible
